[[{"header":{"parameterUnit":"m.s-1","parameterCategory":1,"la1":30.2991,"la2":30.254,"lo1":-89.0895,"lo2":-89.0444,"dy":0.0017,"dx":0.0017,"nx":28,"ny":28,"refTime":"2023-10-28T09:00:00:Z","depth":0,"parameterNumber":2,"parameterNumberName":"U-component_of_WINDS"},"data":[0,0,0,0,0,0,0,0,0,0,0,0,0,0,0,0,0,0,0,0,0,0,0,0,0,0,0,0,0,0,0,0,0,0,0,0,0,0,0,0,0,0,0,0,0,0,0,0,0,0,0,0,0,0,0,0,0,0,-2.4626,-2.4625,0,-2.4569,-2.4568,-2.4568,-2.4466,-2.4464,-2.4462,-2.446,-2.4402,-2.4402,-2.4403,0,0,0,0,0,0,0,0,0,0,0,0,0,-2.4648,-2.4648,-2.4626,-2.4625,-2.4624,-2.4569,-2.4568,-2.4568,-2.4466,-2.4464,-2.4461,-2.4459,-2.4402,-2.4402,-2.4403,0,0,0,0,0,0,0,0,0,0,0,0,0,-2.4619,-2.4648,-2.4626,-2.4567,-2.4561,-2.4569,-2.4568,-2.4567,-2.4467,-2.4464,-2.4461,-2.4458,-2.4402,-2.4402,-2.4403,-2.4464,0,0,-2.4404,-2.4404,0,0,0,0,0,0,0,0,-2.4621,-2.4619,-2.4576,-2.4571,-2.4564,-2.4521,-2.4555,-2.4533,-2.4467,-2.4502,-2.446,-2.4456,-2.4444,-2.4441,-2.4437,-2.4461,-2.4458,-2.4404,-2.4404,-2.4404,-2.4404,0,0,0,0,0,0,0,-2.4623,-2.4621,-2.4603,-2.4576,-2.4569,-2.4544,-2.4537,-2.455,-2.449,-2.4499,-2.4492,-2.4486,-2.444,-2.4437,-2.4435,-2.4458,-2.4404,-2.4404,-2.4405,-2.4405,-2.4532,-2.4535,0,0,0,0,0,0,-2.4634,-2.4623,-2.4605,-2.4601,-2.4586,-2.4546,-2.4538,-2.4538,-2.449,-2.448,-2.4489,-2.4482,-2.4437,-2.4434,-2.4432,-2.4502,-2.4404,-2.4405,-2.4405,-2.4529,-2.4533,-2.4537,0,0,0,0,0,0,-2.4635,-2.4633,-2.4607,-2.461,-2.4605,-2.4549,-2.455,-2.4539,-2.4535,-2.4482,-2.4471,-2.4496,-2.4435,-2.4432,-2.4457,-2.4499,-2.4405,-2.4405,-2.4526,-2.453,-2.4535,-2.4642,0,0,0,0,0,0,-2.4636,-2.4634,-2.4656,-2.4611,-2.4605,-2.4633,-2.4552,-2.454,-2.4536,-2.4526,-2.4486,-2.4476,-2.4432,-2.4457,-2.4458,-2.4497,-2.4406,-2.4522,-2.4528,-2.4533,-2.4634,-2.4649,-2.4663,0,0,0,0,0,-2.4637,-2.4687,-2.4657,-2.4656,-2.4631,-2.4635,-2.4632,-2.458,-2.4539,-2.4561,-2.4528,-2.4478,-2.4494,-2.4461,-2.446,-2.4501,-2.4519,-2.4526,-2.4533,-2.4628,-2.4646,-2.4662,0,0,0,0,0,0,-2.4737,-2.468,-2.4646,-2.4684,-2.4666,-2.4618,-2.4644,-2.4601,-2.4593,-2.4585,-2.4521,-2.4513,-2.4548,-2.4527,-2.449,-2.4559,-2.4499,-2.4506,-2.4571,-2.4588,-2.4602,-2.4606,-2.4406,0,0,0,0,0,-2.4764,-2.4771,-2.4722,-2.476,-2.4752,-2.4701,-2.47,-2.4662,-2.464,-2.4632,-2.46,-2.4581,-2.4582,-2.4584,-2.4582,-2.4631,-2.4622,-2.4659,-2.4674,-2.4685,-2.4692,-2.4719,-2.4736,-2.456,-2.456,-2.456,0,0,-2.4818,-2.4788,-2.4797,-2.4779,-2.476,-2.4771,-2.4694,-2.4708,-2.4715,-2.4634,-2.4656,-2.4634,-2.4608,-2.4647,-2.4662,-2.463,-2.4739,-2.4694,-2.4704,-2.4705,-2.4728,-2.4745,-2.476,-2.4565,-2.4564,-2.4563,0,0,-2.4923,-2.4901,-2.4932,-2.4915,-2.4888,-2.4854,-2.4862,-2.4821,-2.4803,-2.4825,-2.4765,-2.4774,-2.4776,-2.4762,-2.4755,-2.4859,-2.4813,-2.486,-2.4934,-2.4961,-2.4975,-2.4987,-2.5025,-2.504,-2.4867,-2.4868,-2.4868,0,-2.4995,-2.5007,-2.4953,-2.4971,-2.4966,-2.4894,-2.4926,-2.4912,-2.4886,-2.4885,-2.485,-2.4854,-2.4832,-2.4867,-2.4893,-2.4889,-2.4897,-2.4864,-2.4977,-2.4989,-2.4999,-2.5035,-2.505,-2.4874,-2.4873,-2.4872,-2.4872,0,-2.5097,-2.5108,-2.5135,-2.5113,-2.5111,-2.5136,-2.5086,-2.5091,-2.5055,-2.5025,-2.505,-2.5022,-2.5014,-2.502,-2.4983,-2.5051,-2.5032,-2.4989,-2.4926,-2.5023,-2.5056,-2.5069,-2.4882,-2.488,-2.4878,-2.4877,0,0,-2.5261,-2.5211,-2.5222,-2.5212,-2.5179,-2.5186,-2.5209,-2.5202,-2.5209,-2.5194,-2.5212,-2.5219,-2.5179,-2.5171,-2.5133,-2.5157,-2.5244,-2.511,-2.5109,-2.5137,-2.5319,-2.5352,-2.5369,-2.5214,-2.5216,-2.5218,-2.5321,0,-2.5359,-2.5394,-2.5348,-2.5394,-2.5404,-2.5338,-2.5358,-2.5341,-2.5315,-2.532,-2.5291,-2.5297,-2.5243,-2.5238,-2.5259,-2.5229,-2.5279,-2.5221,-2.5231,-2.5232,-2.5239,-2.5385,-2.542,-2.5518,-2.5333,-2.5335,-2.5337,0,-2.5477,-2.547,-2.5518,-2.5484,-2.5487,-2.5506,-2.5497,-2.5503,-2.5483,-2.5462,-2.5456,-2.5412,-2.5433,-2.5375,-2.5404,-2.5366,-2.5368,-2.5354,-2.5357,-2.5355,-2.529,-2.5389,-2.5548,-2.5563,-2.5356,-2.5355,-2.5353,0,-2.5593,-2.5595,-2.5625,-2.5618,-2.558,-2.5595,-2.558,-2.5557,-2.5558,-2.5551,-2.555,-2.5546,-2.5544,-2.5543,-2.5499,-2.546,-2.5535,-2.5472,-2.552,-2.5521,-2.5537,-2.5537,-2.57,-2.5539,-2.5539,-2.5539,-2.5538,0,-2.5707,-2.5739,-2.5677,-2.5695,-2.573,-2.5677,-2.5713,-2.5691,-2.5673,-2.5686,-2.5629,-2.5644,-2.5585,-2.5594,-2.556,-2.5592,-2.5591,-2.5576,-2.5566,-2.5581,-2.5583,-2.558,-2.5573,-2.5542,-2.5542,-2.5541,-2.554,0,-2.5842,-2.5801,-2.5829,-2.5792,-2.5783,-2.5811,-2.5779,-2.5795,-2.5767,-2.5785,-2.5786,-2.5742,-2.5749,-2.5706,-2.5706,-2.5683,-2.5731,-2.571,-2.5738,-2.5732,-2.5782,-2.5778,-2.5949,-2.597,-2.5796,-2.5798,-2.5799,0,-2.5917,-2.594,-2.5907,-2.5912,-2.59,-2.5909,-2.591,-2.586,-2.5863,-2.5844,-2.5863,-2.5867,-2.5866,-2.5882,-2.585,-2.585,-2.5829,-2.5889,-2.5828,-2.5843,-2.5831,-2.583,-2.5833,-2.5901,-2.5903,-2.5905,-2.5907,0,-2.6055,-2.6035,-2.6037,-2.6035,-2.6037,-2.6032,-2.6023,-2.6031,-2.5978,-2.5984,-2.5992,-2.5992,-2.5993,-2.5998,-2.5992,-2.5977,-2.5934,-2.5927,-2.5938,-2.5952,-2.5968,-2.5961,-2.5773,-2.5922,-2.5921,-2.592,-2.5919,-2.5918,-2.6162,-2.6181,-2.6162,-2.6167,-2.6156,-2.615,-2.6164,-2.6139,-2.6144,-2.6141,-2.6112,-2.6126,-2.6109,-2.6097,-2.6087,-2.6098,-2.6069,-2.6085,-2.6089,-2.6094,-2.6104,-2.5967,-2.6097,-2.6096,-2.6096,-2.6095,-2.6095,0,-2.6299,-2.6284,-2.629,-2.628,-2.6286,-2.6246,-2.6235,-2.6242,-2.6255,-2.6243,-2.6245,-2.6256,-2.6261,-2.6231,-2.6232,-2.6247,-2.6228,-2.6249,-2.6247,-2.6245,-2.6128,-2.6119,-2.6265,-2.6265,-2.6265,-2.6265,-2.6265,-2.6265,-2.637,-2.64,-2.6379,-2.6404,-2.6389,-2.6402,-2.64,-2.6395,-2.6385,-2.64,-2.6404,-2.6385,-2.6366,-2.6366,-2.637,-2.6361,-2.6365,-2.6394,-2.6378,-2.627,-2.6253,-2.6237,-2.6228,-2.6395,-2.6395,-2.6494,-2.6495,-2.6496]},{"header":{"parameterUnit":"m.s-1","parameterCategory":1,"la1":30.2991,"la2":30.254,"lo1":-89.0895,"lo2":-89.0444,"dy":0.0017,"dx":0.0017,"nx":28,"ny":28,"refTime":"2023-10-28T09:00:00:Z","depth":0,"parameterNumber":3,"parameterNumberName":"V-component_of_WINDS"},"data":[0,0,0,0,0,0,0,0,0,0,0,0,0,0,0,0,0,0,0,0,0,0,0,0,0,0,0,0,0,0,0,0,0,0,0,0,0,0,0,0,0,0,0,0,0,0,0,0,0,0,0,0,0,0,0,0,0,0,1.5876,1.5876,0,1.5898,1.5898,1.5899,1.5995,1.5997,1.5999,1.6002,1.6018,1.6017,1.6015,0,0,0,0,0,0,0,0,0,0,0,0,0,1.5914,1.5913,1.5876,1.5876,1.5877,1.5898,1.5898,1.5899,1.5995,1.5997,1.6,1.6003,1.6019,1.6017,1.6015,0,0,0,0,0,0,0,0,0,0,0,0,0,1.5913,1.5913,1.5876,1.5927,1.5932,1.5898,1.5898,1.5899,1.5994,1.5997,1.6001,1.6004,1.602,1.6017,1.6015,1.5932,0,0,1.6007,1.6006,0,0,0,0,0,0,0,0,1.5913,1.5911,1.5919,1.5924,1.5929,1.5947,1.5918,1.591,1.5993,1.597,1.6002,1.6006,1.5992,1.5992,1.5988,1.5932,1.5933,1.6007,1.6006,1.6004,1.6004,0,0,0,0,0,0,0,1.5913,1.5911,1.5885,1.5919,1.5925,1.5948,1.5952,1.5917,1.5961,1.5972,1.598,1.5981,1.5995,1.599,1.5989,1.5933,1.6007,1.6005,1.6003,1.6002,1.5812,1.5809,0,0,0,0,0,0,1.5906,1.591,1.5884,1.5885,1.5929,1.5945,1.5949,1.5938,1.5962,1.5969,1.5978,1.5986,1.5993,1.5992,1.599,1.5895,1.6004,1.6002,1.6001,1.5816,1.5812,1.5808,0,0,0,0,0,0,1.5907,1.5903,1.5883,1.59,1.5899,1.5941,1.5928,1.5937,1.5932,1.5967,1.5975,1.5965,1.5996,1.5994,1.5946,1.5897,1.6001,1.5999,1.582,1.5815,1.581,1.5703,0,0,0,0,0,0,1.5907,1.5903,1.5872,1.5899,1.5898,1.5839,1.5925,1.5935,1.5928,1.5938,1.5957,1.5963,1.5998,1.595,1.5944,1.5895,1.5997,1.5825,1.5818,1.5811,1.5711,1.5695,1.5681,0,0,0,0,0,1.5908,1.5839,1.5869,1.5866,1.586,1.5836,1.5835,1.5879,1.5924,1.5893,1.5916,1.5962,1.5904,1.5944,1.5938,1.5888,1.5828,1.582,1.5812,1.5718,1.5698,1.5681,0,0,0,0,0,0,1.5802,1.5843,1.5877,1.5815,1.5822,1.5852,1.5814,1.5856,1.5848,1.5857,1.591,1.5914,1.5858,1.5869,1.5913,1.581,1.5874,1.5865,1.5804,1.5786,1.5771,1.5768,1.5995,0,0,0,0,0,1.5772,1.575,1.5787,1.5728,1.573,1.5772,1.5762,1.5796,1.5804,1.5806,1.5826,1.583,1.5814,1.5801,1.5787,1.5715,1.572,1.5678,1.5663,1.565,1.564,1.5604,1.5585,1.5782,1.5782,1.5782,0,0,1.5708,1.5728,1.571,1.5707,1.5716,1.5692,1.5773,1.5743,1.5725,1.5801,1.5758,1.5773,1.5782,1.5722,1.5696,1.5729,1.5588,1.564,1.5629,1.5626,1.5593,1.5575,1.5558,1.5776,1.5777,1.5778,0,0,1.5579,1.5592,1.5545,1.5554,1.5568,1.5597,1.5585,1.5611,1.5624,1.5582,1.564,1.5619,1.5589,1.5593,1.5591,1.5469,1.5511,1.5463,1.5382,1.5346,1.533,1.5317,1.5272,1.5256,1.5454,1.5453,1.5453,0,1.5497,1.5463,1.5515,1.5482,1.548,1.5552,1.5504,1.551,1.5517,1.5513,1.5551,1.5516,1.5527,1.5469,1.544,1.5436,1.5425,1.5459,1.5329,1.5316,1.5304,1.5262,1.5245,1.5447,1.5448,1.5449,1.5449,0,1.5362,1.5338,1.5298,1.5307,1.53,1.526,1.5305,1.5292,1.5327,1.5352,1.5309,1.5326,1.5318,1.5307,1.534,1.5255,1.5275,1.532,1.5384,1.5278,1.524,1.5224,1.5439,1.5441,1.5443,1.5444,0,0,1.5161,1.5203,1.5187,1.5193,1.5216,1.5198,1.5162,1.5156,1.5144,1.5148,1.5118,1.5093,1.5136,1.5134,1.5168,1.5137,1.5039,1.5186,1.5187,1.5157,1.4946,1.491,1.4891,1.5069,1.5066,1.5064,1.4945,0,1.5038,1.4979,1.5027,1.4959,1.4938,1.5009,1.4977,1.4988,1.5011,1.4995,1.5021,1.5002,1.506,1.506,1.5032,1.5056,1.4997,1.5066,1.504,1.5039,1.5033,1.4871,1.4832,1.4719,1.493,1.4928,1.4926,0,1.4884,1.4884,1.4815,1.4845,1.4838,1.4809,1.4809,1.4794,1.4807,1.4827,1.4827,1.4871,1.4837,1.4904,1.4858,1.4904,1.4897,1.4908,1.4905,1.4901,1.4973,1.4861,1.4683,1.4665,1.4903,1.4905,1.4906,0,1.4743,1.4727,1.4684,1.4687,1.472,1.4699,1.4711,1.4729,1.4723,1.4723,1.472,1.4715,1.4712,1.4707,1.4749,1.4793,1.4698,1.4767,1.4711,1.471,1.4685,1.4685,1.4501,1.4684,1.4684,1.4685,1.4685,0,1.4599,1.4553,1.4622,1.4594,1.4546,1.4603,1.4553,1.4573,1.4589,1.4567,1.4628,1.4605,1.4663,1.4647,1.4679,1.4637,1.4635,1.4649,1.4657,1.4642,1.464,1.4635,1.4644,1.468,1.4681,1.4682,1.4683,0,1.4432,1.4476,1.4434,1.4471,1.448,1.4442,1.4474,1.445,1.448,1.4451,1.4448,1.4492,1.4477,1.452,1.4509,1.4532,1.4469,1.4492,1.4465,1.4471,1.4412,1.4416,1.4217,1.4193,1.4392,1.4391,1.4389,0,1.4335,1.4302,1.4337,1.4328,1.4339,1.4323,1.4319,1.4374,1.4366,1.4382,1.4356,1.4347,1.4341,1.4313,1.4344,1.4337,1.4359,1.429,1.4358,1.4344,1.4356,1.4357,1.4353,1.4274,1.4272,1.427,1.4268,0,1.4158,1.4183,1.4175,1.4176,1.417,1.4172,1.4179,1.4168,1.4227,1.4216,1.4202,1.4199,1.4191,1.418,1.4181,1.4193,1.4239,1.4247,1.4234,1.4216,1.4201,1.4207,1.4424,1.425,1.4252,1.4253,1.4254,1.4255,1.4023,1.3998,1.4019,1.4009,1.4021,1.4027,1.4007,1.4036,1.4026,1.4025,1.4059,1.4038,1.4055,1.4062,1.407,1.4054,1.4086,1.4066,1.4061,1.4055,1.4044,1.4206,1.4055,1.4055,1.4056,1.4056,1.4057,0,1.3848,1.3867,1.3858,1.3867,1.3859,1.3908,1.3919,1.3909,1.389,1.3904,1.3899,1.3883,1.3874,1.3906,1.3902,1.3883,1.3904,1.388,1.388,1.3882,1.4017,1.4028,1.3862,1.3863,1.3863,1.3863,1.3863,1.3863,1.3756,1.3717,1.3744,1.3712,1.3731,1.3713,1.3715,1.372,1.3731,1.3712,1.3706,1.3729,1.3749,1.3747,1.3741,1.3751,1.3745,1.3713,1.3729,1.3854,1.3873,1.389,1.3902,1.3712,1.3712,1.3596,1.3595,1.3594]}]]